Date,TemperatureHighF,TemperatureAvgF,TemperatureLowF,DewpointHighF,DewpointAvgF,DewpointLowF,HumidityHigh,HumidityAvg,HumidityLow,PressureMaxIn,PressureMinIn,WindSpeedMaxMPH,WindSpeedAvgMPH,GustSpeedMaxMPH,PrecipitationSumIn
2013-1-1,39.3,38.9,38.3,-99.9,-99.9,-99.9,0,0,100,29.55,29.38,20,16,0,0.00
2013-1-4,50.7,49.3,48.8,-99.9,-99.9,-99.9,0,0,100,30.55,30.45,16,11,0,0.00
2013-1-5,53.8,49.5,46.0,-99.9,-99.9,-99.9,0,0,100,30.46,30.34,27,13,0,0.00
2013-1-6,49.6,48.2,43.3,-99.9,-99.9,-99.9,0,0,100,30.44,30.21,24,13,0,0.00
2013-1-7,50.3,49.3,48.4,-99.9,-99.9,-99.9,0,0,100,30.21,30.00,22,15,0,0.00
2013-1-8,52.9,48.5,41.3,-99.9,-99.9,-99.9,0,0,100,30.22,29.97,24,12,0,0.00
2013-1-9,50.6,41.9,37.2,-99.9,-99.9,-99.9,0,0,100,30.20,30.01,7,3,0,0.00
2013-1-10,44.7,42.2,37.5,-99.9,-99.9,-99.9,0,0,100,30.01,29.91,12,5,0,0.00
2013-1-11,47.6,43.3,38.5,-99.9,-99.9,-99.9,0,0,100,29.99,29.83,18,9,0,0.00
2013-1-12,44.8,42.6,40.1,-99.9,-99.9,-99.9,0,0,100,30.07,29.81,14,9,0,0.00
2013-1-13,41.1,40.0,38.7,-99.9,-99.9,-99.9,0,0,100,30.10,29.99,12,7,0,0.00
2013-1-14,43.1,40.8,37.2,-99.9,-99.9,-99.9,0,0,100,30.00,29.76,23,15,0,0.00
2013-1-15,41.7,39.9,38.0,-99.9,-99.9,-99.9,0,0,100,29.85,29.74,21,10,0,0.00
2013-1-16,42.5,40.6,39.6,-99.9,-99.9,-99.9,0,0,100,29.87,29.72,23,16,0,0.00
2013-1-17,42.8,41.7,40.7,-99.9,-99.9,-99.9,0,0,100,29.88,29.58,26,22,0,0.00
2013-1-18,41.6,37.2,33.2,-99.9,-99.9,-99.9,0,0,100,29.58,29.25,33,25,0,0.00
2013-1-19,38.9,37.7,35.7,-99.9,-99.9,-99.9,0,0,100,29.59,29.28,25,16,0,0.00
2013-1-20,38.7,37.6,36.5,-99.9,-99.9,-99.9,0,0,100,29.57,29.38,16,13,0,0.00
2013-1-21,38.1,36.3,33.0,-99.9,-99.9,-99.9,0,0,100,29.38,29.26,16,9,0,0.00
2013-1-22,40.5,38.0,34.3,-99.9,-99.9,-99.9,0,0,100,29.72,29.29,13,8,0,0.00
2013-1-23,41.2,38.6,36.0,-99.9,-99.9,-99.9,0,0,100,29.85,29.72,18,11,0,0.00
2013-1-24,43.2,40.5,38.1,-99.9,-99.9,-99.9,0,0,100,29.98,29.84,28,13,0,0.00
2013-1-25,45.0,43.7,42.2,-99.9,-99.9,-99.9,0,0,100,29.91,29.62,33,26,0,0.00
2013-1-28,51.7,48.0,41.9,-99.9,-99.9,-99.9,0,0,100,29.38,28.99,40,28,0,0.00
2013-1-29,53.4,48.2,44.9,-99.9,-99.9,-99.9,0,0,100,29.41,29.05,34,19,0,0.00
2013-1-30,46.6,44.7,43.3,-99.9,-99.9,-99.9,0,0,100,29.75,29.26,33,19,0,0.00
2013-1-31,47.6,45.4,42.4,-99.9,-99.9,-99.9,0,0,100,29.67,29.32,35,24,0,0.00
2013-2-1,43.7,41.5,39.4,-99.9,-99.9,-99.9,0,0,100,29.82,29.34,20,12,0,0.00
2013-2-2,43.6,39.7,36.8,-99.9,-99.9,-99.9,0,0,100,30.24,29.81,19,10,0,0.00
2013-2-3,51.7,47.9,39.7,-99.9,-99.9,-99.9,0,0,100,30.09,29.72,24,16,0,0.00
2013-2-4,51.8,42.8,35.6,-99.9,-99.9,-99.9,0,0,100,29.76,29.46,38,25,0,0.00
2013-2-5,45.4,38.9,33.1,-99.9,-99.9,-99.9,0,0,100,29.63,29.23,31,23,0,0.00
2013-2-6,43.8,41.5,38.6,-99.9,-99.9,-99.9,0,0,100,30.17,29.63,25,16,0,0.00
2013-2-7,42.7,38.9,36.7,-99.9,-99.9,-99.9,0,0,100,30.17,29.96,21,10,0,0.00
2013-2-8,45.1,42.7,41.2,-99.9,-99.9,-99.9,0,0,100,30.23,30.08,19,10,0,0.00
2013-2-9,45.5,44.5,43.0,-99.9,-99.9,-99.9,0,0,100,30.15,29.70,12,5,0,0.00
2013-2-10,45.4,42.1,39.7,-99.9,-99.9,-99.9,0,0,100,29.70,29.21,17,13,0,0.00
2013-2-11,40.1,39.3,38.2,-99.9,-99.9,-99.9,0,0,100,29.83,29.27,18,12,0,0.00
2013-2-12,39.4,38.9,37.6,-99.9,-99.9,-99.9,0,0,100,29.99,29.83,20,12,0,0.00
2013-2-13,51.2,44.9,39.1,-99.9,-99.9,-99.9,0,0,100,29.96,29.59,36,23,0,0.00
2013-2-14,48.4,45.1,41.5,-99.9,-99.9,-99.9,0,0,100,29.94,29.62,22,12,0,0.00
2013-2-15,50.8,43.9,40.3,-99.9,-99.9,-99.9,0,0,100,30.13,29.94,15,6,0,0.00
2013-2-16,47.7,46.1,44.8,-99.9,-99.9,-99.9,0,0,100,30.10,30.05,23,14,0,0.00
2013-2-17,46.7,45.3,43.8,-99.9,-99.9,-99.9,0,0,100,30.07,30.00,26,18,0,0.00
2013-2-18,45.6,43.0,40.9,-99.9,-99.9,-99.9,0,0,100,30.10,29.98,18,12,0,0.00
2013-2-19,44.9,40.6,35.3,-99.9,-99.9,-99.9,0,0,100,30.12,30.02,7,3,0,0.00
2013-2-20,43.2,40.5,36.7,-99.9,-99.9,-99.9,0,0,100,30.18,30.02,23,16,0,0.00
2013-2-21,38.0,37.0,36.0,-99.9,-99.9,-99.9,0,0,100,30.20,30.15,21,16,0,0.00
2013-2-22,37.6,36.6,35.4,-99.9,-99.9,-99.9,0,0,100,30.23,30.15,16,8,0,0.00
2013-2-23,38.7,36.6,35.3,-99.9,-99.9,-99.9,0,0,100,30.32,30.19,8,4,0,0.00
2013-2-24,40.5,38.7,35.9,-99.9,-99.9,-99.9,0,0,100,30.44,30.32,8,4,0,0.00
2013-2-25,43.7,39.5,35.1,-99.9,-99.9,-99.9,0,0,100,30.60,30.41,9,4,0,0.00
2013-2-26,43.7,40.9,38.1,-99.9,-99.9,-99.9,0,0,100,30.65,30.55,9,5,0,0.00
2013-2-27,43.5,40.6,37.4,-99.9,-99.9,-99.9,0,0,100,30.68,30.56,11,5,0,0.00
2013-2-28,48.1,43.3,35.4,-99.9,-99.9,-99.9,0,0,100,30.57,30.50,13,8,0,0.00
2013-3-1,45.7,43.4,37.8,-99.9,-99.9,-99.9,0,0,100,30.58,30.43,11,4,0,0.00
2013-3-2,48.0,43.0,36.7,-99.9,-99.9,-99.9,0,0,100,30.43,30.28,9,4,0,0.00
2013-3-3,45.3,43.6,42.1,-99.9,-99.9,-99.9,0,0,100,30.29,30.05,13,5,0,0.00
2013-3-4,43.1,41.5,39.0,-99.9,-99.9,-99.9,0,0,100,30.06,29.67,16,7,0,0.00
2013-3-5,44.6,40.3,35.6,-99.9,-99.9,-99.9,0,0,100,29.69,29.55,11,4,0,0.00
2013-3-6,43.8,42.0,40.8,-99.9,-99.9,-99.9,0,0,100,29.58,29.52,18,13,0,0.00
2013-4-24,51.0,47.8,43.6,-99.9,-99.9,-99.9,0,0,100,30.27,30.12,2,0,0,0.00
2013-4-25,51.3,45.6,41.7,-99.9,-99.9,-99.9,0,0,100,30.24,30.10,3,0,0,0.00
2013-4-26,45.9,43.1,38.7,-99.9,-99.9,-99.9,0,0,100,30.12,29.95,5,1,0,0.00
2013-4-27,48.7,45.1,41.6,-99.9,-99.9,-99.9,0,0,100,30.20,30.01,3,0,0,0.00
2013-4-28,51.0,46.4,41.8,-99.9,-99.9,-99.9,0,0,100,30.07,29.76,6,1,0,0.00
2013-4-29,51.4,45.7,42.4,-99.9,-99.9,-99.9,0,0,100,30.19,29.76,5,1,0,0.00
2013-4-30,49.0,44.5,39.3,-99.9,-99.9,-99.9,0,0,100,30.37,30.19,3,0,0,0.00
2013-5-1,52.6,47.5,42.0,-99.9,-99.9,-99.9,0,0,100,30.31,30.20,4,0,0,0.00
2013-5-2,52.9,45.8,38.8,-99.9,-99.9,-99.9,0,0,100,30.29,30.10,3,0,0,0.00
2013-5-3,55.4,51.6,46.6,-99.9,-99.9,-99.9,0,0,100,30.10,29.79,5,0,0,0.00
2013-5-4,54.9,49.6,44.4,-99.9,-99.9,-99.9,0,0,100,29.97,29.77,6,0,0,0.00
2013-5-5,59.7,52.9,49.0,-99.9,-99.9,-99.9,0,0,100,30.07,29.95,3,0,0,0.00
2013-5-6,53.1,49.7,46.6,-99.9,-99.9,-99.9,0,0,100,30.07,30.03,3,0,0,0.00
2013-5-7,58.3,51.9,45.5,-99.9,-99.9,-99.9,0,0,100,30.06,29.75,2,0,0,0.00
2013-5-8,56.0,51.3,48.7,-99.9,-99.9,-99.9,0,0,100,29.75,29.32,5,1,0,0.00
2013-5-9,50.8,48.3,46.5,-99.9,-99.9,-99.9,0,0,100,29.50,29.17,8,1,0,0.00
2013-5-10,56.8,50.0,45.9,-99.9,-99.9,-99.9,0,0,100,29.69,29.45,5,0,0,0.00
2013-5-11,50.5,47.5,45.4,-99.9,-99.9,-99.9,0,0,100,29.88,29.58,7,1,0,0.00
2013-5-12,55.1,48.3,44.2,-99.9,-99.9,-99.9,0,0,100,29.89,29.71,4,0,0,0.00
2013-5-13,49.9,45.8,42.1,-99.9,-99.9,-99.9,0,0,100,29.74,29.60,6,1,0,0.00
2013-5-14,51.7,45.9,41.3,-99.9,-99.9,-99.9,0,0,100,29.60,29.40,4,0,0,0.00
2013-5-15,50.5,46.4,43.8,-99.9,-99.9,-99.9,0,0,100,29.43,29.36,5,1,0,0.00
2013-5-16,47.5,46.0,43.6,-99.9,-99.9,-99.9,0,0,100,29.63,29.50,15,9,0,0.00
2013-5-17,56.9,50.2,43.5,-99.9,-99.9,-99.9,0,0,100,29.90,29.61,13,7,0,0.00
2013-5-18,51.1,48.8,46.8,-99.9,-99.9,-99.9,0,0,100,29.88,29.69,14,7,0,0.00
2013-5-19,54.6,50.8,48.3,-99.9,-99.9,-99.9,0,0,100,30.04,29.77,9,3,0,0.00
2013-5-20,57.7,53.3,50.2,-99.9,-99.9,-99.9,0,0,100,30.08,30.00,22,11,0,0.00
2013-5-21,55.2,50.7,47.7,-99.9,-99.9,-99.9,0,0,100,30.18,29.95,20,12,0,0.00
2013-5-22,52.9,49.5,45.0,-99.9,-99.9,-99.9,0,0,100,30.22,30.12,25,14,0,0.00
2013-5-23,48.3,45.2,43.4,-99.9,-99.9,-99.9,0,0,100,30.12,29.99,28,18,0,0.00
2013-5-24,56.0,49.1,43.8,-99.9,-99.9,-99.9,0,0,100,30.22,29.96,22,13,0,0.00
2013-5-25,52.7,48.0,42.3,-99.9,-99.9,-99.9,0,0,100,30.24,30.15,18,9,0,0.00
2013-5-26,54.6,50.6,46.4,-99.9,-99.9,-99.9,0,0,100,30.15,29.76,21,11,0,0.00
2013-5-27,50.9,49.4,47.4,-99.9,-99.9,-99.9,0,0,100,29.76,29.41,28,18,0,0.00
2013-5-28,53.2,48.8,44.4,-99.9,-99.9,-99.9,0,0,100,29.71,29.47,13,6,0,0.00
2013-5-29,63.9,55.7,48.0,-99.9,-99.9,-99.9,0,0,100,29.96,29.71,16,10,0,0.00
2013-5-30,62.2,56.1,49.1,-99.9,-99.9,-99.9,0,0,100,30.12,29.93,16,11,0,0.00
2013-5-31,55.6,51.7,46.9,-99.9,-99.9,-99.9,0,0,100,30.27,30.11,12,7,0,0.00
2013-6-1,57.0,50.2,44.8,-99.9,-99.9,-99.9,0,0,100,30.38,30.24,14,6,0,0.00
2013-6-2,57.1,52.2,47.4,-99.9,-99.9,-99.9,0,0,100,30.48,30.37,12,6,0,0.00
2013-6-3,58.1,53.4,50.9,-99.9,-99.9,-99.9,0,0,100,30.53,30.46,13,5,0,0.00
2013-6-4,62.4,56.3,51.5,-99.9,-99.9,-99.9,0,0,100,30.49,30.29,10,5,0,0.00
2013-6-5,60.4,55.2,51.3,-99.9,-99.9,-99.9,0,0,100,30.29,30.15,11,5,0,0.00
2013-6-6,62.0,55.0,50.2,-99.9,-99.9,-99.9,0,0,100,30.27,30.15,12,5,0,0.00
2013-6-7,67.8,59.7,52.1,-99.9,-99.9,-99.9,0,0,100,30.32,30.26,8,4,0,0.00
2013-6-8,61.0,56.3,51.4,-99.9,-99.9,-99.9,0,0,100,30.29,30.11,10,4,0,0.00
2013-6-9,58.9,54.1,49.8,-99.9,-99.9,-99.9,0,0,100,30.11,29.96,14,6,0,0.00
2013-6-10,56.0,53.7,49.6,-99.9,-99.9,-99.9,0,0,100,29.96,29.86,19,10,0,0.00
2013-6-11,55.9,53.4,51.8,-99.9,-99.9,-99.9,0,0,100,29.86,29.65,20,12,0,0.00
2013-6-12,56.7,53.5,51.5,-99.9,-99.9,-99.9,0,0,100,29.68,29.58,18,7,0,0.00
2013-6-13,58.3,52.9,50.7,-99.9,-99.9,-99.9,0,0,100,29.77,29.55,26,9,0,0.00
2013-7-8,59.5,58.5,57.7,-99.9,-99.9,-99.9,0,0,100,30.08,29.86,2,1,0,0.00
2013-7-9,72.9,64.0,56.0,-99.9,-99.9,-99.9,0,0,100,30.47,29.38,11,5,0,0.00
2013-7-10,68.8,61.4,54.4,-99.9,-99.9,-99.9,0,0,100,30.37,30.32,10,5,0,0.00
2013-7-11,65.9,59.9,55.6,-99.9,-99.9,-99.9,0,0,100,30.35,30.28,12,5,0,0.00
2013-7-12,67.9,62.7,55.7,-99.9,-99.9,-99.9,0,0,100,30.29,30.24,12,5,0,0.00
2013-7-13,64.4,60.2,51.5,-99.9,-99.9,-99.9,0,0,100,30.35,30.27,12,6,0,0.00
2013-7-14,61.3,55.3,49.7,-99.9,-99.9,-99.9,0,0,100,30.34,30.25,13,6,0,0.00
2013-7-15,66.5,58.9,51.6,-99.9,-99.9,-99.9,0,0,100,30.27,30.22,11,4,0,0.00
2013-7-16,68.9,63.5,59.7,-99.9,-99.9,-99.9,0,0,100,30.27,30.21,13,4,0,0.00
2013-7-17,68.0,63.2,58.5,-99.9,-99.9,-99.9,0,0,100,30.36,30.25,14,6,0,0.00
2013-7-18,72.6,64.5,56.6,-99.9,-99.9,-99.9,0,0,100,30.41,30.34,9,5,0,0.00
2013-7-19,76.0,67.9,60.5,-99.9,-99.9,-99.9,0,0,100,30.36,30.26,12,5,0,0.00
2013-7-20,69.2,64.3,59.5,-99.9,-99.9,-99.9,0,0,100,30.31,30.20,14,9,0,0.00
2013-7-21,65.7,61.1,59.0,-99.9,-99.9,-99.9,0,0,100,30.22,30.07,11,7,0,0.00
2013-7-22,66.4,62.0,58.8,-99.9,-99.9,-99.9,0,0,100,30.07,29.93,13,7,0,0.00
2013-7-23,63.1,59.7,57.8,-99.9,-99.9,-99.9,0,0,100,29.93,27.72,16,8,0,0.00
2013-7-24,60.6,59.5,57.8,-99.9,-99.9,-99.9,0,0,100,29.74,27.03,18,10,0,0.00
2013-7-25,64.2,60.6,58.2,-99.9,-99.9,-99.9,0,0,100,29.78,28.20,18,7,0,0.00
2013-7-26,63.6,60.1,56.7,-99.9,-99.9,-99.9,0,0,100,29.84,28.18,20,8,0,0.00
2013-7-27,62.5,59.4,56.9,-99.9,-99.9,-99.9,0,0,100,29.71,28.12,14,6,0,0.00
2013-7-28,66.3,60.3,55.6,-99.9,-99.9,-99.9,0,0,100,29.23,27.63,23,8,0,0.00
2013-7-29,65.7,61.0,57.7,-99.9,-99.9,-99.9,0,0,100,29.45,27.89,21,8,0,0.00
2013-7-30,65.4,61.8,58.5,-99.9,-99.9,-99.9,0,0,100,28.94,21.76,23,10,0,0.00
2013-7-31,64.8,59.3,56.3,-99.9,-99.9,-99.9,0,0,100,49.77,40.00,14,7,0,0.00
2013-8-1,63.7,62.1,60.2,-99.9,-99.9,-99.9,0,0,100,47.03,36.57,24,16,0,0.00
2013-8-2,64.6,62.4,60.0,-99.9,-99.9,-99.9,0,0,100,47.11,36.75,29,19,0,0.00
2013-8-3,66.6,61.4,58.0,-99.9,-99.9,-99.9,0,0,100,47.27,40.00,22,13,0,0.00
2013-8-4,62.8,59.9,56.3,-99.9,-99.9,-99.9,0,0,100,47.99,40.00,17,9,0,0.00
2013-8-5,65.6,61.4,58.2,-99.9,-99.9,-99.9,0,0,100,47.53,40.00,13,7,0,0.00
2013-8-6,62.1,59.8,57.6,-99.9,-99.9,-99.9,0,0,100,49.27,40.00,19,8,0,0.00
2013-8-7,64.9,61.2,58.2,-99.9,-99.9,-99.9,0,0,100,48.24,40.00,13,4,0,0.00
2013-8-8,64.7,60.3,56.8,-99.9,-99.9,-99.9,0,0,100,49.50,40.00,17,9,0,0.00
2013-8-9,65.0,61.3,58.6,-99.9,-99.9,-99.9,0,0,100,48.96,40.00,22,11,0,0.00
2013-8-10,66.8,60.8,57.6,-99.9,-99.9,-99.9,0,0,100,49.75,40.00,15,7,0,0.00
2013-8-13,64.6,61.4,58.7,-99.9,-99.9,-99.9,0,0,100,48.96,40.00,10,6,0,0.00
2013-8-14,64.6,60.0,56.6,-99.9,-99.9,-99.9,0,0,100,49.65,40.00,18,8,0,0.00
2013-8-15,68.9,64.3,61.7,-99.9,-99.9,-99.9,0,0,100,48.27,40.00,18,10,0,0.00
2013-8-16,66.8,61.7,56.4,-99.9,-99.9,-99.9,0,0,100,49.65,40.00,17,8,0,0.00
2013-8-17,67.4,62.2,58.9,-99.9,-99.9,-99.9,0,0,100,49.22,40.00,26,15,0,0.00
2013-8-18,64.6,59.5,55.6,-99.9,-99.9,-99.9,0,0,100,49.29,40.00,22,11,0,0.00
2013-8-19,69.1,61.5,56.5,-99.9,-99.9,-99.9,0,0,100,49.69,40.00,15,9,0,0.00
2013-8-20,64.5,61.1,58.0,-99.9,-99.9,-99.9,0,0,100,50.13,40.00,18,10,0,0.00
2013-8-21,68.6,63.9,59.8,-99.9,-99.9,-99.9,0,0,100,49.20,40.00,21,10,0,0.00
2013-8-22,62.5,60.1,59.1,-99.9,-99.9,-99.9,0,0,100,48.96,40.00,14,5,0,0.00
2013-8-23,60.3,58.9,57.2,-99.9,-99.9,-99.9,0,0,100,48.46,40.00,15,9,0,0.00
2013-8-24,63.0,59.3,56.0,-99.9,-99.9,-99.9,0,0,100,49.55,40.00,13,6,0,0.00
2013-8-25,68.4,60.8,53.5,-99.9,-99.9,-99.9,0,0,100,50.16,40.00,11,6,0,0.00
2013-8-26,64.4,59.2,54.0,-99.9,-99.9,-99.9,0,0,100,50.50,40.00,10,4,0,0.00
2013-8-27,66.8,59.8,56.9,-99.9,-99.9,-99.9,0,0,100,50.47,40.00,10,4,0,0.00
2013-8-29,69.4,66.0,61.3,-99.9,-99.9,-99.9,0,0,100,49.19,40.00,14,7,0,0.00
2013-8-30,68.9,62.0,55.2,-99.9,-99.9,-99.9,0,0,100,50.13,40.00,26,12,0,0.00
2013-8-31,62.7,57.9,52.3,-99.9,-99.9,-99.9,0,0,100,51.99,40.00,24,12,0,0.00
2013-9-1,64.7,60.4,56.8,-99.9,-99.9,-99.9,0,0,100,51.69,40.00,19,13,0,0.00
2013-9-2,74.4,67.0,60.1,-99.9,-99.9,-99.9,0,0,100,50.94,40.00,22,14,0,0.00
2013-9-3,67.7,62.3,57.7,-99.9,-99.9,-99.9,0,0,100,49.72,40.00,19,9,0,0.00
2013-9-4,63.1,59.1,54.5,-99.9,-99.9,-99.9,0,0,100,49.63,40.00,21,11,0,0.00
2013-9-5,62.9,57.8,53.5,-99.9,-99.9,-99.9,0,0,100,49.27,40.00,13,6,0,0.00
2013-9-6,59.2,54.9,51.7,-99.9,-99.9,-99.9,0,0,100,51.23,40.00,13,8,0,0.00
2013-9-7,55.4,52.4,49.7,-99.9,-99.9,-99.9,0,0,100,50.42,40.00,20,10,0,0.00
2013-9-8,60.2,55.7,52.6,-99.9,-99.9,-99.9,0,0,100,50.20,40.00,13,5,0,0.00
2013-9-9,62.4,57.2,53.5,-99.9,-99.9,-99.9,0,0,100,50.90,40.00,15,8,0,0.00
2013-9-10,62.7,58.0,54.4,-99.9,-99.9,-99.9,0,0,100,51.25,40.00,21,13,0,0.00
2013-9-11,64.5,59.7,55.4,-99.9,-99.9,-99.9,0,0,100,50.78,40.00,16,8,0,0.00
2013-9-12,65.8,61.0,56.9,-99.9,-99.9,-99.9,0,0,100,49.72,40.00,20,8,0,0.00
2013-9-13,58.6,55.8,51.5,-99.9,-99.9,-99.9,0,0,100,50.90,40.00,14,7,0,0.00
2013-9-14,61.1,54.4,49.2,-99.9,-99.9,-99.9,0,0,100,50.87,40.00,12,7,0,0.00
2013-9-15,62.7,56.3,48.7,-99.9,-99.9,-99.9,0,0,100,50.36,40.00,44,22,0,0.00
2013-9-16,56.0,51.8,47.6,-99.9,-99.9,-99.9,0,0,100,50.35,40.00,34,21,0,0.00
2013-9-17,54.1,52.3,50.6,-99.9,-99.9,-99.9,0,0,100,49.74,40.00,22,10,0,0.00
2013-9-18,57.8,53.2,49.3,-99.9,-99.9,-99.9,0,0,100,50.58,40.00,25,15,0,0.00
2013-9-19,62.3,56.6,51.9,-99.9,-99.9,-99.9,0,0,100,50.27,40.00,29,17,0,0.00
2013-9-20,60.4,56.7,51.5,-99.9,-99.9,-99.9,0,0,100,49.98,40.00,17,10,0,0.00
2013-9-21,65.8,60.5,56.1,-99.9,-99.9,-99.9,0,0,100,49.72,40.00,15,8,0,0.00
2013-9-22,67.1,62.0,58.8,-99.9,-99.9,-99.9,0,0,100,49.43,40.00,13,8,0,0.00
2013-9-23,60.8,59.8,58.8,-99.9,-99.9,-99.9,0,0,100,48.91,40.00,16,9,0,0.00
2013-9-24,59.9,58.9,58.3,-99.9,-99.9,-99.9,0,0,100,48.98,40.00,11,4,0,0.00
2013-9-25,62.6,59.1,57.7,-99.9,-99.9,-99.9,0,0,100,49.04,40.00,16,4,0,0.00
2013-9-26,58.6,57.2,55.6,-99.9,-99.9,-99.9,0,0,100,49.57,40.00,15,9,0,0.00
2013-9-27,62.0,59.5,57.7,-99.9,-99.9,-99.9,0,0,100,48.69,40.00,11,6,0,0.00
2013-9-28,63.2,59.7,55.1,-99.9,-99.9,-99.9,0,0,100,49.27,40.00,13,6,0,0.00
2013-9-29,62.1,59.7,57.7,-99.9,-99.9,-99.9,0,0,100,49.24,40.00,16,10,0,0.00
2013-9-30,60.6,58.7,57.2,-99.9,-99.9,-99.9,0,0,100,49.58,40.00,16,12,0,0.00
2013-10-1,61.5,58.6,55.7,-99.9,-99.9,-99.9,0,0,100,48.70,40.00,21,17,0,0.00
2013-10-2,61.9,59.8,57.6,-99.9,-99.9,-99.9,0,0,100,48.91,40.00,24,17,0,0.00
2013-10-3,62.0,61.1,59.7,-99.9,-99.9,-99.9,0,0,100,47.43,40.00,23,14,0,0.00
2013-10-4,62.9,59.9,56.4,-99.9,-99.9,-99.9,0,0,100,48.79,40.00,15,7,0,0.00
2013-10-5,64.2,58.7,54.6,-99.9,-99.9,-99.9,0,0,100,49.60,40.00,16,8,0,0.00
2013-10-6,64.0,60.7,58.2,-99.9,-99.9,-99.9,0,0,100,49.70,40.00,17,12,0,0.00
2013-10-7,63.7,62.4,61.3,-99.9,-99.9,-99.9,0,0,100,48.04,40.00,19,14,0,0.00
2013-10-9,51.4,50.5,49.8,-99.9,-99.9,-99.9,0,0,100,50.32,40.00,19,16,0,0.00
2013-10-10,54.7,51.7,48.9,-99.9,-99.9,-99.9,0,0,100,52.15,40.00,19,10,0,0.00
2013-10-11,57.3,52.1,46.3,-99.9,-99.9,-99.9,0,0,100,52.23,40.00,12,6,0,0.00
2013-10-12,56.8,54.3,51.6,-99.9,-99.9,-99.9,0,0,100,50.58,40.00,12,6,0,0.00
2013-10-13,56.9,54.9,52.1,-99.9,-99.9,-99.9,0,0,100,50.14,40.00,10,5,0,0.00
2013-10-14,57.8,54.4,51.4,-99.9,-99.9,-99.9,0,0,100,49.92,40.00,8,4,0,0.00
2013-10-15,57.8,54.5,50.0,-99.9,-99.9,-99.9,0,0,100,50.32,40.00,12,5,0,0.00
2013-10-16,56.3,53.9,51.4,-99.9,-99.9,-99.9,0,0,100,49.10,40.00,22,11,0,0.00
2013-10-17,62.1,56.1,51.5,-99.9,-99.9,-99.9,0,0,100,49.60,40.00,12,6,0,0.00
2013-10-18,58.1,57.6,56.1,-99.9,-99.9,-99.9,0,0,100,48.99,40.00,21,13,0,0.00
2013-10-19,60.5,58.5,57.2,-99.9,-99.9,-99.9,0,0,100,47.89,40.00,27,13,0,0.00
2013-10-20,59.6,57.7,55.4,-99.9,-99.9,-99.9,0,0,100,47.82,40.00,30,14,0,0.00
2013-10-21,60.6,56.8,52.8,-99.9,-99.9,-99.9,0,0,100,48.40,40.00,25,11,0,0.00
2013-10-22,60.4,59.2,58.4,-99.9,-99.9,-99.9,0,0,100,47.01,40.00,26,16,0,0.00
2013-10-23,58.9,54.4,49.5,-99.9,-99.9,-99.9,0,0,100,47.49,40.00,27,16,0,0.00
2013-10-24,58.0,53.5,47.3,-99.9,-99.9,-99.9,0,0,100,50.22,40.00,15,8,0,0.00
2013-10-25,61.4,58.2,56.4,-99.9,-99.9,-99.9,0,0,100,47.88,40.00,23,16,0,0.00
2013-10-26,57.8,55.2,52.3,-99.9,-99.9,-99.9,0,0,100,48.59,40.00,30,14,0,0.00
2013-10-27,60.0,55.1,51.9,-99.9,-99.9,-99.9,0,0,100,49.38,40.00,27,18,0,0.00
2013-10-28,55.4,52.6,50.3,-99.9,-99.9,-99.9,0,0,100,48.32,40.00,24,14,0,0.00
2013-10-29,53.4,49.8,47.1,-99.9,-99.9,-99.9,0,0,100,49.72,40.00,27,16,0,0.00
2013-10-30,57.9,52.3,46.8,-99.9,-99.9,-99.9,0,0,100,49.57,40.00,35,15,0,0.00
2013-10-31,56.8,52.5,50.2,-99.9,-99.9,-99.9,0,0,100,50.04,40.00,24,14,0,0.00
2013-11-1,55.0,50.9,46.7,-99.9,-99.9,-99.9,0,0,100,50.68,40.00,19,9,0,0.00
2013-11-2,55.4,49.9,46.0,-99.9,-99.9,-99.9,0,0,100,50.81,40.00,39,19,0,0.00
2013-11-3,51.5,47.0,43.7,-99.9,-99.9,-99.9,0,0,100,49.82,40.00,24,12,0,0.00
2013-11-4,51.0,45.8,41.0,-99.9,-99.9,-99.9,0,0,100,50.25,40.00,18,10,0,0.00
2013-11-5,51.8,46.8,44.0,-99.9,-99.9,-99.9,0,0,100,49.63,40.00,26,11,0,0.00
2013-11-6,50.6,48.1,45.3,-99.9,-99.9,-99.9,0,0,100,50.34,40.00,19,10,0,0.00
2013-11-7,53.6,48.3,43.2,-99.9,-99.9,-99.9,0,0,100,50.50,40.00,22,14,0,0.00
2013-11-8,50.9,47.3,42.3,-99.9,-99.9,-99.9,0,0,100,50.23,40.00,16,10,0,0.00
2013-11-9,48.0,44.3,41.5,-99.9,-99.9,-99.9,0,0,100,50.77,40.00,18,12,0,0.00
2013-11-10,54.4,47.7,40.3,-99.9,-99.9,-99.9,0,0,100,50.78,40.00,30,14,0,0.00
2013-11-11,60.0,55.7,52.5,-99.9,-99.9,-99.9,0,0,100,49.08,40.00,32,13,0,0.00
2013-11-12,52.6,49.4,46.0,-99.9,-99.9,-99.9,0,0,100,51.06,40.00,18,10,0,0.00
2013-11-13,52.8,49.5,45.7,-99.9,-99.9,-99.9,0,0,100,51.73,40.00,25,15,0,0.00
2013-11-14,51.5,49.1,46.7,-99.9,-99.9,-99.9,0,0,100,51.15,40.00,35,20,0,0.00
2013-11-15,53.0,50.8,47.1,-99.9,-99.9,-99.9,0,0,100,51.17,40.00,16,8,0,0.00
2013-11-16,57.5,53.4,50.0,-99.9,-99.9,-99.9,0,0,100,50.40,40.00,13,8,0,0.00
2013-11-17,54.6,50.9,47.9,-99.9,-99.9,-99.9,0,0,100,49.73,40.00,14,7,0,0.00
2013-11-18,48.7,47.0,44.8,-99.9,-99.9,-99.9,0,0,100,51.06,40.00,17,10,0,0.00
2013-11-25,48.4,47.2,45.7,-99.9,-99.9,-99.9,0,0,100,51.71,40.00,14,6,0,0.00
2013-11-26,52.6,48.5,43.8,-99.9,-99.9,-99.9,0,0,100,51.23,40.00,17,9,0,0.00
2013-11-27,53.4,52.2,51.5,-99.9,-99.9,-99.9,0,0,100,50.77,40.00,16,10,0,0.00
2013-11-28,52.0,51.4,49.8,-99.9,-99.9,-99.9,0,0,100,50.13,40.00,14,7,0,0.00
2013-11-29,51.8,49.8,47.6,-99.9,-99.9,-99.9,0,0,100,49.95,40.00,31,20,0,0.00
2013-11-30,51.0,48.5,46.3,-99.9,-99.9,-99.9,0,0,100,50.42,40.00,21,12,0,0.00
2013-12-1,52.4,50.3,48.7,-99.9,-99.9,-99.9,0,0,100,49.53,40.00,21,7,0,0.00
2013-12-2,50.7,49.5,47.5,-99.9,-99.9,-99.9,0,0,100,49.68,40.00,12,6,0,0.00
2013-12-3,52.7,49.9,46.9,-99.9,-99.9,-99.9,0,0,100,49.91,40.00,17,10,0,0.00
2013-12-4,47.4,44.8,41.4,-99.9,-99.9,-99.9,0,0,100,50.82,40.00,23,16,0,0.00
2013-12-5,52.9,46.5,41.1,-99.9,-99.9,-99.9,0,0,100,50.80,40.00,47,28,0,0.00
2013-12-6,48.8,44.1,40.0,-99.9,-99.9,-99.9,0,0,100,50.73,40.00,22,8,0,0.00
2013-12-7,50.5,48.6,46.4,-99.9,-99.9,-99.9,0,0,100,49.15,40.00,17,13,0,0.00
2013-12-8,57.0,53.8,49.0,-99.9,-99.9,-99.9,0,0,100,48.67,40.00,27,17,0,0.00
2013-12-9,56.5,52.6,51.0,-99.9,-99.9,-99.9,0,0,100,48.41,40.00,26,13,0,0.00
2013-12-10,54.6,53.9,52.5,-99.9,-99.9,-99.9,0,0,100,48.42,40.00,28,20,0,0.00
2013-12-11,54.2,53.0,52.1,-99.9,-99.9,-99.9,0,0,100,48.18,40.00,31,22,0,0.00
2013-12-12,54.9,54.2,53.2,-99.9,-99.9,-99.9,0,0,100,46.56,40.00,32,20,0,0.00
2013-12-13,56.9,52.1,45.1,-99.9,-99.9,-99.9,0,0,100,44.97,40.00,28,19,0,0.00
2013-12-14,54.2,50.7,43.4,-99.9,-99.9,-99.9,0,0,100,50.27,40.00,35,21,0,0.00
2013-12-15,54.0,50.6,45.8,-99.9,-99.9,-99.9,0,0,100,50.34,40.00,34,20,0,0.00
2013-12-16,52.1,46.5,44.1,-99.9,-99.9,-99.9,0,0,100,49.85,40.00,25,14,0,0.00
2013-12-17,51.4,47.3,43.0,-99.9,-99.9,-99.9,0,0,100,51.67,40.00,36,17,0,0.00
2013-12-18,54.0,51.5,45.5,-99.9,-99.9,-99.9,0,0,100,49.52,40.00,44,25,0,0.00
2013-12-19,45.5,41.9,39.4,-99.9,-99.9,-99.9,0,0,100,50.05,40.00,26,18,0,0.00
2013-12-20,55.1,47.8,40.5,-99.9,-99.9,-99.9,0,0,100,50.11,40.00,32,20,0,0.00
2013-12-21,53.8,47.9,43.0,-99.9,-99.9,-99.9,0,0,100,49.83,40.00,24,17,0,0.00
2013-12-22,44.8,42.1,39.7,-99.9,-99.9,-99.9,0,0,100,50.95,40.00,26,18,0,0.00
2013-12-23,54.5,48.9,40.4,-99.9,-99.9,-99.9,0,0,100,50.65,40.00,42,20,0,0.00
2013-12-24,48.5,43.0,39.9,-99.9,-99.9,-99.9,0,0,100,49.62,40.00,36,24,0,0.00
2013-12-25,46.7,44.2,42.1,-99.9,-99.9,-99.9,0,0,100,49.15,40.00,19,11,0,0.00
2013-12-26,51.9,43.6,38.8,-99.9,-99.9,-99.9,0,0,100,49.38,40.00,52,15,0,0.00
2013-12-27,52.0,47.7,42.8,-99.9,-99.9,-99.9,0,0,100,47.32,40.00,42,29,0,0.00
2013-12-28,45.1,43.0,41.1,-99.9,-99.9,-99.9,0,0,100,49.17,40.00,21,15,0,0.00
2013-12-29,51.9,45.5,40.4,-99.9,-99.9,-99.9,0,0,100,50.18,40.00,36,18,0,0.00
2013-12-30,52.1,47.0,43.7,-99.9,-99.9,-99.9,0,0,100,48.81,40.00,28,15,0,0.00
2013-12-31,51.1,48.0,43.6,-99.9,-99.9,-99.9,0,0,100,49.53,40.00,35,20,0,0.00
2014-1-1,52.3,47.6,44.5,-99.9,-99.9,-99.9,0,0,100,49.81,40.00,26,16,0,0.00
2014-1-2,51.9,47.3,44.2,-99.9,-99.9,-99.9,0,0,100,48.76,40.00,36,17,0,0.00